Location: Casa Rossa
(45.2389°N, 12.2056°E)
Time: 22:39:59
(UTC+00:00)

Cosmos 2100 Rocket - Pass Details

Date: 14 July 2020
Orbit: 955 x 1002 km, 82.9° (Epoch: 14 August)

Event Time Altitude Azimuth Distance (km) Brightness Sun altitude
Exits shadow 00:45:06 36° 197° (SSW) 1,514 4.5 -20.2°
Maximum altitude 00:47:53 79° 278° (W) 1,002 4.0 -20.0°
Drops below altitude 10° 00:54:09 10° 6° (N) 2,725 7.4 -19.6°
Sets 00:56:40 0° 8° (N) 3,670 8.4 -19.4°
